{"data":{"norad_id":60022,"epoch":"2026-09-21T07:48:29.808864Z","epoch_age_seconds":106041,"freshness":"FRESH","line1":"1 60022U 24111G   26264.32534501 -.00003170  00000+0 -82766-4 0  9997","line2":"2 60022  53.1599 242.1387 0001168  87.9497 272.1639 15.34385634129061","mean_motion":15.34385634,"eccentricity":0.0001168,"inclination_deg":53.1599,"raan_deg":242.1387,"arg_perigee_deg":87.9497,"mean_anomaly_deg":272.1639,"bstar":-8.2766e-5,"rev_number":12906,"period_min":93.848636750206,"perigee_km":461.94692419244,"apogee_km":463.54495444706,"semimajor_km":6840.8829393197,"source":"CELESTRAK","updated_at":"2026-09-22T09:00:49.138426Z"}}